Time,TemperatureF,DewpointF,PressureIn,WindDirection,WindDirectionDegrees,WindSpeedMPH,WindSpeedGustMPH,Humidity,HourlyPrecipIn,Conditions,Clouds,dailyrainin,SoftwareType,DateUTC
2013-04-15 00:41:00,47.0,29.0,29.66,North,0,0.0,-999.0,49,0.00,,,-99.99,,2013-04-15 07:41:00,
2013-04-15 00:42:00,47.0,29.0,29.66,North,0,0.0,-999.0,49,0.00,,,-99.99,,2013-04-15 07:42:00,
2013-04-15 00:52:00,47.0,29.0,29.66,North,0,0.0,-999.0,49,0.00,,,-99.99,,2013-04-15 07:52:00,
2013-04-15 01:22:00,42.0,34.0,29.67,North,0,0.0,-999.0,73,0.00,,,-99.99,,2013-04-15 08:22:00,
2013-04-15 01:33:00,42.0,34.0,29.67,North,0,0.0,-999.0,73,0.00,,,-99.99,,2013-04-15 08:33:00,
2013-04-15 01:42:00,42.0,34.0,29.67,North,0,0.0,-999.0,73,0.00,,,-99.99,,2013-04-15 08:42:00,
2013-04-15 01:52:00,42.0,34.0,29.67,North,0,0.0,-999.0,73,0.00,,,-99.99,,2013-04-15 08:52:00,
2013-04-15 02:22:00,40.0,33.0,29.65,North,0,0.0,-999.0,76,0.00,,,-99.99,,2013-04-15 09:22:00,
2013-04-15 02:32:00,40.0,33.0,29.65,North,0,0.0,-999.0,76,0.00,,,-99.99,,2013-04-15 09:32:00,
2013-04-15 02:42:00,40.0,33.0,29.65,North,0,0.0,-999.0,76,0.00,,,-99.99,,2013-04-15 09:42:00,
2013-04-15 02:52:00,40.0,33.0,29.65,North,0,0.0,-999.0,76,0.00,,,-99.99,,2013-04-15 09:52:00,
2013-04-15 03:23:00,39.0,37.0,29.65,North,0,0.0,-999.0,91,0.00,,,-99.99,,2013-04-15 10:23:00,
2013-04-15 03:33:00,39.0,37.0,29.65,North,0,0.0,-999.0,91,0.00,,,-99.99,,2013-04-15 10:33:00,
2013-04-15 03:42:00,39.0,37.0,29.65,North,0,0.0,-999.0,91,0.00,,,-99.99,,2013-04-15 10:42:00,
2013-04-15 03:52:00,39.0,37.0,29.65,North,0,0.0,-999.0,91,0.00,,,-99.99,,2013-04-15 10:52:00,
2013-04-15 04:22:00,39.0,37.0,29.64,SSW,200,4.0,-999.0,94,0.00,,,-99.99,,2013-04-15 11:22:00,
2013-04-15 04:32:00,39.0,37.0,29.64,SSW,200,4.0,-999.0,94,0.00,,,-99.99,,2013-04-15 11:32:00,
2013-04-15 04:42:00,39.0,37.0,29.64,SSW,200,4.0,-999.0,94,0.00,,,-99.99,,2013-04-15 11:42:00,
2013-04-15 04:52:00,39.0,37.0,29.64,SSW,200,4.0,-999.0,94,0.00,,,-99.99,,2013-04-15 11:52:00,
2013-04-15 05:23:00,39.0,38.0,29.65,North,0,0.0,-999.0,96,0.00,,,-99.99,,2013-04-15 12:23:00,
2013-04-15 05:33:00,39.0,38.0,29.65,North,0,0.0,-999.0,96,0.00,,,-99.99,,2013-04-15 12:33:00,
2013-04-15 05:43:00,39.0,38.0,29.65,North,0,0.0,-999.0,96,0.00,,,-99.99,,2013-04-15 12:43:00,
2013-04-15 05:52:00,39.0,38.0,29.65,North,0,0.0,-999.0,96,0.00,,,-99.99,,2013-04-15 12:52:00,
2013-04-15 06:23:00,39.0,38.0,29.66,SW,220,8.0,-999.0,97,0.00,,,-99.99,,2013-04-15 13:23:00,
2013-04-15 06:33:00,39.0,38.0,29.66,SW,220,8.0,-999.0,97,0.00,,,-99.99,,2013-04-15 13:33:00,
2013-04-15 06:42:00,39.0,38.0,29.66,SW,220,8.0,-999.0,97,0.00,,,-99.99,,2013-04-15 13:42:00,
2013-04-15 06:52:00,39.0,38.0,29.66,SW,220,8.0,-999.0,97,0.00,,,-99.99,,2013-04-15 13:52:00,
2013-04-15 07:44:00,38.0,37.0,29.67,North,0,0.0,-999.0,97,0.00,,,-99.99,,2013-04-15 14:44:00,
2013-04-15 07:53:00,38.0,37.0,29.67,North,0,0.0,-999.0,97,0.00,,,-99.99,,2013-04-15 14:53:00,
2013-04-15 08:23:00,39.0,38.0,29.68,North,0,0.0,-999.0,98,0.00,,,-99.99,,2013-04-15 15:23:00,
2013-04-15 08:34:00,39.0,38.0,29.68,North,0,0.0,-999.0,98,0.00,,,-99.99,,2013-04-15 15:34:00,
2013-04-15 08:43:00,39.0,38.0,29.68,North,0,0.0,-999.0,98,0.00,,,-99.99,,2013-04-15 15:43:00,
2013-04-15 08:53:00,39.0,38.0,29.68,North,0,0.0,-999.0,98,0.00,,,-99.99,,2013-04-15 15:53:00,
2013-04-15 09:24:00,41.0,40.0,29.68,SW,220,8.0,-999.0,95,0.00,,,-99.99,,2013-04-15 16:24:00,
2013-04-15 09:33:00,41.0,40.0,29.68,SW,220,8.0,-999.0,95,0.00,,,-99.99,,2013-04-15 16:33:00,
2013-04-15 09:43:00,41.0,40.0,29.68,SW,220,8.0,-999.0,95,0.00,,,-99.99,,2013-04-15 16:43:00,
2013-04-15 09:53:00,41.0,40.0,29.68,SW,220,8.0,-999.0,95,0.00,,,-99.99,,2013-04-15 16:53:00,
2013-04-15 10:21:00,42.0,40.0,29.70,ESE,120,1.0,-999.0,92,0.00,,,-99.99,,2013-04-15 17:21:00,
2013-04-15 10:43:00,42.0,40.0,29.70,ESE,120,1.0,-999.0,92,0.00,,,-99.99,,2013-04-15 17:43:00,
2013-04-15 10:52:00,42.0,40.0,29.70,ESE,120,1.0,-999.0,92,0.00,,,-99.99,,2013-04-15 17:52:00,
2013-04-15 11:23:00,41.0,39.0,29.73,SE,130,2.0,-999.0,92,0.00,,,-99.99,,2013-04-15 18:23:00,
2013-04-15 11:32:00,41.0,39.0,29.73,SE,130,2.0,-999.0,92,0.00,,,-99.99,,2013-04-15 18:32:00,
2013-04-15 11:42:00,41.0,39.0,29.73,SE,130,2.0,-999.0,92,0.00,,,-99.99,,2013-04-15 18:42:00,
2013-04-15 11:52:00,41.0,39.0,29.73,SE,130,2.0,-999.0,92,0.00,,,-99.99,,2013-04-15 18:52:00,
2013-04-15 12:22:00,42.0,40.0,29.75,SSE,150,9.0,-999.0,91,0.00,,,-99.99,,2013-04-15 19:22:00,
2013-04-15 12:35:00,42.0,40.0,29.75,SSE,150,9.0,-999.0,91,0.00,,,-99.99,,2013-04-15 19:35:00,
2013-04-15 12:47:00,42.0,40.0,29.75,SSE,150,9.0,-999.0,91,0.00,,,-99.99,,2013-04-15 19:47:00,
2013-04-15 12:52:00,42.0,40.0,29.76,SE,140,3.0,-999.0,91,0.00,,,-99.99,,2013-04-15 19:52:00,
2013-04-15 13:22:00,42.0,40.0,29.76,SE,140,3.0,-999.0,91,0.00,,,-99.99,,2013-04-15 20:22:00,
2013-04-15 13:32:00,42.0,40.0,29.76,SE,140,3.0,-999.0,91,0.00,,,-99.99,,2013-04-15 20:32:00,
2013-04-15 13:42:00,42.0,40.0,29.76,SE,140,3.0,-999.0,91,0.00,,,-99.99,,2013-04-15 20:42:00,
2013-04-15 13:52:00,41.0,39.0,29.78,North,0,0.0,-999.0,93,0.00,,,-99.99,,2013-04-15 20:52:00,
2013-04-15 14:22:00,41.0,39.0,29.78,North,0,0.0,-999.0,93,0.00,,,-99.99,,2013-04-15 21:22:00,
2013-04-15 14:32:00,41.0,39.0,29.78,North,0,0.0,-999.0,93,0.00,,,-99.99,,2013-04-15 21:32:00,
2013-04-15 14:42:00,41.0,39.0,29.78,North,0,0.0,-999.0,93,0.00,,,-99.99,,2013-04-15 21:42:00,
2013-04-15 15:23:00,42.0,40.0,29.77,ESE,110,1.0,-999.0,93,0.00,,,-99.99,,2013-04-15 22:23:00,
2013-04-15 15:32:00,42.0,40.0,29.77,ESE,110,1.0,-999.0,93,0.00,,,-99.99,,2013-04-15 22:32:00,
2013-04-15 15:42:00,42.0,40.0,29.77,ESE,110,1.0,-999.0,93,0.00,,,-99.99,,2013-04-15 22:42:00,
2013-04-15 15:52:00,42.0,40.0,29.77,ESE,110,1.0,-999.0,93,0.00,,,-99.99,,2013-04-15 22:52:00,
2013-04-15 16:22:00,45.0,41.0,29.76,SE,130,7.0,-999.0,85,0.00,,,-99.99,,2013-04-15 23:22:00,
2013-04-15 16:32:00,45.0,41.0,29.76,SE,130,7.0,-999.0,85,0.00,,,-99.99,,2013-04-15 23:32:00,
2013-04-15 16:42:00,45.0,41.0,29.76,SE,130,7.0,-999.0,85,0.00,,,-99.99,,2013-04-15 23:42:00,
2013-04-15 16:52:00,45.0,41.0,29.76,SE,130,7.0,-999.0,85,0.00,,,-99.99,,2013-04-15 23:52:00,
2013-04-15 17:22:00,44.0,40.0,29.76,SE,140,1.0,-999.0,86,0.00,,,-99.99,,2013-04-16 00:22:00,
2013-04-15 17:32:00,44.0,40.0,29.76,SE,140,1.0,-999.0,86,0.00,,,-99.99,,2013-04-16 00:32:00,
2013-04-15 17:42:00,44.0,40.0,29.76,SE,140,1.0,-999.0,86,0.00,,,-99.99,,2013-04-16 00:42:00,
2013-04-15 18:22:00,43.0,40.0,29.77,SW,220,2.0,-999.0,88,0.00,,,-99.99,,2013-04-16 01:22:00,
2013-04-15 18:32:00,43.0,40.0,29.77,SW,220,2.0,-999.0,88,0.00,,,-99.99,,2013-04-16 01:32:00,
2013-04-15 18:42:00,43.0,40.0,29.77,SW,220,2.0,-999.0,88,0.00,,,-99.99,,2013-04-16 01:42:00,
2013-04-15 18:52:00,43.0,40.0,29.77,SW,220,2.0,-999.0,88,0.00,,,-99.99,,2013-04-16 01:52:00,
2013-04-15 19:22:00,42.0,40.0,29.76,SSE,160,8.0,-999.0,92,0.00,,,-99.99,,2013-04-16 02:22:00,
2013-04-15 19:32:00,42.0,40.0,29.76,SSE,160,8.0,-999.0,92,0.00,,,-99.99,,2013-04-16 02:32:00,
2013-04-15 19:42:00,42.0,40.0,29.76,SSE,160,8.0,-999.0,92,0.00,,,-99.99,,2013-04-16 02:42:00,
2013-04-15 19:51:00,42.0,40.0,29.76,SSE,160,8.0,-999.0,92,0.00,,,-99.99,,2013-04-16 02:51:00,
2013-04-15 19:52:00,41.0,40.0,29.75,ENE,70,5.0,-999.0,95,0.00,,,-99.99,,2013-04-16 02:52:00,
2013-04-15 20:22:00,41.0,40.0,29.75,ENE,70,5.0,-999.0,95,0.00,,,-99.99,,2013-04-16 03:22:00,
2013-04-15 20:33:00,41.0,40.0,29.75,ENE,70,5.0,-999.0,95,0.00,,,-99.99,,2013-04-16 03:33:00,
2013-04-15 20:43:00,41.0,40.0,29.75,ENE,70,5.0,-999.0,95,0.00,,,-99.99,,2013-04-16 03:43:00,
2013-04-15 21:23:00,40.0,39.0,29.76,North,0,0.0,-999.0,97,0.00,,,-99.99,,2013-04-16 04:23:00,
2013-04-15 21:33:00,40.0,39.0,29.76,North,0,0.0,-999.0,97,0.00,,,-99.99,,2013-04-16 04:33:00,
2013-04-15 21:42:00,40.0,39.0,29.76,North,0,0.0,-999.0,97,0.00,,,-99.99,,2013-04-16 04:42:00,
2013-04-15 21:52:00,40.0,39.0,29.76,North,0,0.0,-999.0,97,0.00,,,-99.99,,2013-04-16 04:52:00,
2013-04-15 22:22:00,39.0,38.0,29.77,SW,230,9.0,-999.0,98,0.00,,,-99.99,,2013-04-16 05:22:00,
2013-04-15 22:32:00,39.0,38.0,29.77,SW,230,9.0,-999.0,98,0.00,,,-99.99,,2013-04-16 05:32:00,
2013-04-15 22:42:00,39.0,38.0,29.77,SW,230,9.0,-999.0,98,0.00,,,-99.99,,2013-04-16 05:42:00,
2013-04-15 22:51:00,39.0,38.0,29.77,SW,230,9.0,-999.0,98,0.00,,,-99.99,,2013-04-16 05:51:00,
2013-04-15 23:22:00,39.0,38.0,29.76,SW,220,13.0,-999.0,98,0.00,,,-99.99,,2013-04-16 06:22:00,
2013-04-15 23:32:00,39.0,38.0,29.76,SW,220,13.0,-999.0,98,0.00,,,-99.99,,2013-04-16 06:32:00,
2013-04-15 23:42:00,39.0,38.0,29.76,SW,220,13.0,-999.0,98,0.00,,,-99.99,,2013-04-16 06:42:00,
2013-04-15 23:52:00,39.0,38.0,29.76,SW,220,13.0,-999.0,98,0.00,,,-99.99,,2013-04-16 06:52:00,
2013-04-15 23:53:00,38.0,37.0,29.75,South,190,10.0,-999.0,98,0.01,,,-99.99,,2013-04-16 06:53:00,